« Back
NWS Peachtree City, Ga » Text Product » GA Regional Weather Roundup


Printer-friendly Version
Current Version              Previous Versions:   1  2  3  4  5  6  7  8  9  

Regional Weather Roundup

981
ASUS42 KFFC 310503
RWRGA
WEATHER ROUNDUP FOR GEORGIA
NATIONAL WEATHER SERVICE PEACHTREE CITY GA
1200 AM EST SAT JAN 31 2015

NOTE: "FAIR" INDICATES FEW OR NO CLOUDS BELOW 12,000 FEET WITH NO
SIGNIFICANT WEATHER AND/OR OBSTRUCTIONS TO VISIBILITY.

* = USE WITH CAUTION. THE STATIONS MARKED WITH AN ASTERISK MAY NOT
REPORT WEATHER SUCH AS PRECIPITATION, FOG, OR THUNDER AND ARE NOT
QUALITY CONTROLLED BY NWS.

THE REMARK "TC" DENOTES TEMPERATURE READING IN DEGREES CELSIUS.

GAZ001>058-310600-
NORTH GEORGIA

CITY           SKY/WX    TMP DP  RH WIND       PRES   REMARKS
ATLANTA        PTCLDY    36  19  50 NW7       30.34S WCI  30
ATHENS         CLEAR     35  19  52 N5        30.31F WCI  31
CHAMBLEE       CLEAR     35  19  52 NW6       30.33S WCI  30
PEACHTREE CITY CLEAR     36  21  54 NW7       30.35S WCI  30
ROME           CLEAR     34  21  59 NW6       30.37F WCI  29
WEST ATLANTA   CLEAR     36  19  50 NW5       30.35S WCI  32
GAINESVILLE    CLEAR     33  20  58 NW8       30.32S WCI  26
CARTERSVILLE   CLEAR     33  19  56 CALM      30.38S


CITY           SKY/WX    TMP DP  RH WIND       PRES   REMARKS
DALTON*        CLEAR     32  23  69 CALM      30.38F
MARIETTA       CLEAR     34  19  54 W3        30.34R
$$

GAZ059>098-102>109-310600-
CENTRAL GEORGIA

CITY           SKY/WX    TMP DP  RH WIND       PRES   REMARKS
AUGUSTA-BUSH   CLEAR     32  20  61 CALM      30.33R
AUGUSTA-DANIEL CLEAR     41  16  36 N5        30.32R
COLUMBUS       PTCLDY    41  23  48 N3        30.34F
MACON          CLEAR     37  22  54 N3        30.33S
ROBINS AFB     CLEAR     38  22  52 W6        30.30S WCI  34


CITY           SKY/WX    TMP DP  RH WIND       PRES   REMARKS
LAGRANGE*      PTCLDY    41  26  56 N3        30.36S
SYLVANIA*      CLEAR     40  29  65 NE6       30.31S
MILLEDGEVILLE* CLEAR     39  28  65 CALM      30.33S
$$

GAZ099>101-110>166-310600-
SOUTH GEORGIA

CITY           SKY/WX    TMP DP  RH WIND       PRES   REMARKS
SAVANNAH       PTCLDY    39  29  67 N3        30.31R
VALDOSTA       MOCLDY    44  30  57 N9        30.30S
ALMA           MOCLDY    43  27  53 N6        30.31R
ST SIMONS      MOCLDY    45  29  53 N5        30.29S
FT STEWART     CLEAR     37  30  74 NW3       30.29R
ALBANY         MOCLDY    45  23  42 N7        30.35S
HUNTER AFB     CLEAR     40  29  65 CALM      30.28R
MOODY AFB      MOCLDY    43  28  56 N9        30.30S
BRUNSWICK      MOCLDY    43  32  65 CALM      30.30S


CITY           SKY/WX    TMP DP  RH WIND       PRES   REMARKS
BAINBRIDGE*    PTCLDY    48  30  49 N7        30.32S
MOULTRIE*      MOCLDY    45  30  57 N5        30.31F
VIDALIA*       CLEAR     43  30  61 N7        30.31S
WAYCROSS*      MOCLDY    45  33  61 N5        30.31S
DOUGLAS*       MOCLDY    45  27  49 N7        30.32S
$$



USA.gov is the U.S. government's official web portal to all federal, state and local government web resources and services.